Regional Weather Roundup
Issued by NWS

Home | Current Version | Previous Version | Graphics & Text | Print | Product List | Glossary On
Versions: 1 2 3 4 5 6 7 8 9 10 11 12 13 14 15 16 17 18 19 20 21 22 23 24 25 26 27 28 29 30 31 32 33 34 35 36 37 38 39 40 41 42 43 44 45 46 47 48 49 50
000
ASUS43 KOAX 141410
RWRNE

WEATHER ROUNDUP FOR NEBRASKA
NATIONAL WEATHER SERVICE OMAHA NE
800 AM CST THU DEC 14 2017

NOTES: SATELLITE DATA IS BEING USED TO AUGMENT CLOUD COVER ABOVE
       12000 FEET.
       "FAIR" INDICATES FEW OR NO CLOUDS BELOW 12,000 FEET WITH NO
       SIGNIFICANT WEATHER AND/OR OBSTRUCTIONS TO VISIBILITY.


NEZ001>004-019>022-054>056-141500-
NEBRASKA PANHANDLE

CITY           SKY/WX    TMP DP  RH WIND       PRES   REMARKS
SCOTTSBLUFF    CLOUDY    36  24  62 NW18G25   30.14R WCI  26
ALLIANCE       CLOUDY    36  24  62 NW26G35   30.08S WCI  24
CHADRON        CLOUDY    37  24  59 NW17G28   30.12R WCI  27
GORDON         LGT SNOW  33  31  92 NW13      30.08R WCI  24
KIMBALL        CLOUDY    33  23  68 NW13G20   30.13S WCI  24
SIDNEY         CLOUDY    21  17  84 W8        30.12S WCI  11
$$

NEZ057>060-069>072-079>082-141500-
SOUTHWEST NEBRASKA

CITY           SKY/WX    TMP DP  RH WIND       PRES   REMARKS
NORTH PLATTE   CLOUDY    37  26  64 NW8       30.08F WCI  31
IMPERIAL       CLOUDY    35  27  72 W6        30.11F WCI  30
LEXINGTON      CLOUDY    37  28  72 NW10      30.08S WCI  29
MCCOOK         CLOUDY    37  26  64 W12       30.12R WCI  29
OGALLALA       CLOUDY    37  25  63 NW13      30.10S WCI  28
$$

NEZ005>010-023>029-035>040-094-141500-
NORTH CENTRAL NEBRASKA

CITY           SKY/WX    TMP DP  RH WIND       PRES   REMARKS
VALENTINE      FLURRIES  35  33  92 W9        30.05R WCI  28
AINSWORTH      LGT SNOW  33  33 100 NW9       30.03S WCI  25
BROKEN BOW     LGT RAIN  35  32  88 NW10      30.05S WCI  27
O`NEILL        CLOUDY    32  28  85 W5        30.03S WCI  27
ORD            CLOUDY    36  29  75 NW10      30.03S WCI  28
THEDFORD       CLOUDY    35  32  90 W7        30.06F WCI  29
$$

NEZ041-046>049-061>064-073>077-083>087-141500-
SOUTH CENTRAL NEBRASKA

CITY           SKY/WX    TMP DP  RH WIND       PRES   REMARKS
GRAND ISLAND   CLOUDY    29  25  85 W8        30.07S WCI  21
AURORA         PTCLDY    27  24  87 W8        30.07R WCI  19
HASTINGS       CLOUDY    30  24  78 W5        30.08R WCI  25
HEBRON         CLOUDY    31  26  80 W5        30.10S WCI  27
HOLDREGE       CLOUDY    34  25  69 W8        30.08S WCI  27
KEARNEY        CLOUDY    34  24  67 NW9       30.08R WCI  27
YORK           CLOUDY    28  27  93 CALM      30.07S
$$

NEZ011>018-030>034-042>045-141500-
NORTHEAST NEBRASKA

CITY           SKY/WX    TMP DP  RH WIND       PRES   REMARKS
NORFOLK        CLOUDY    32  26  78 W8        30.01F WCI  25
ALBION         CLOUDY    29  24  83 CALM      30.05R
BLAIR          CLOUDY    32  29  86 CALM      30.04S
COLUMBUS       CLOUDY    31  25  78 W7        30.06S WCI  24
FREMONT        CLOUDY    34  24  68 W5        30.05S WCI  30
TEKAMAH        CLOUDY    32  24  72 CALM      30.05S
WAYNE          CLOUDY    34  27  75 W5        30.03S WCI  30
$$

NEZ050>053-065>068-078-088>093-141500-
SOUTHEAST NEBRASKA

CITY           SKY/WX    TMP DP  RH WIND       PRES   REMARKS
LINCOLN        CLOUDY    36  26  67 NW5       30.08R WCI  32
OMAHA EPPLEY   CLOUDY    34  26  72 CALM      30.06R
BEATRICE       CLOUDY    35  28  75 W6        30.08R WCI  30
FALLS CITY     CLOUDY    34  25  69 NW6       30.07R WCI  29
NEBRASKA CITY  CLOUDY    34  28  79 NW7       30.07R WCI  28
PLATTSMOUTH    CLOUDY    33  29  83 W5        30.06R WCI  29
$$

NEZ044-045-051>053-067-141500-
OMAHA AREA

CITY           SKY/WX    TMP DP  RH WIND       PRES   REMARKS
OMAHA EPPLEY   CLOUDY    34  26  72 CALM      30.06R
BLAIR          CLOUDY    32  29  86 CALM      30.04S
FREMONT        CLOUDY    34  24  68 W5        30.05S WCI  30
MILLARD        CLOUDY    36  29  77 CALM      30.06S
OFFUTT AFB     CLOUDY    34  26  74 NW5       30.06R WCI  30
PLATTSMOUTH    CLOUDY    33  29  83 W5        30.06R WCI  29
WAHOO          CLOUDY    34  24  65 W5        30.06S WCI  30
$$



USA.gov is the U.S. government's official web portal to all federal, state and local government web resources and services.